Weather History for Capo Bellavista, Italy

Change the Weather History Date:

Friday, September 14, 2012

  Actual Average (LIED) Record (LIED)
Temperature  
Mean Temperature 69 °F -  
Max Temperature 75 °F 75 °F 90 °F (2014)
Min Temperature 63 °F 63 °F 53 °F (2001)
Cooling Degree Days 4    
Growing Degree Days 19 (Base 50)    
Moisture  
Dew Point 55 °F    
Average Humidity 63    
Maximum Humidity 94    
Minimum Humidity 42    
Precipitation  
Precipitation 0.00 in 0.07 in - ()
Sea Level Pressure  
Sea Level Pressure 29.65 in    
Wind  
Wind Speed 17 mph ()    
Max Wind Speed 25 mph    
Max Gust Speed 43 mph    
Visibility 7.0 miles    
Events Thunderstorm    
Averages and records for this station are not official NWS values.
T = Trace of Precipitation, MM = Missing Value Source: Averaged Metar Reports

Daily Weather History Graph

Daily Weather History Graph

Search for Another Location

Airport:

Trip Planner

Search our weather history database for the weather conditions in past years. The results will help you decide how hot, cold, wet, or windy it might be!

Date:

Astronomy

Sep. 14, 2012 Rise Set
Actual Time 7:01 AM CEST 7:31 PM CEST
Civil Twilight 6:34 AM CEST 7:58 PM CEST
Nautical Twilight 6:02 AM CEST 8:30 PM CEST
Astronomical Twilight 5:29 AM CEST 9:02 PM CEST
Moon 5:07 AM CEST (9/14) 6:18 PM CEST (9/14)
Length of Visible Light 13h 24m
Length of Day
12h 29m
Waning Crescent, 4% of the Moon is Illuminated
Sep 14
Waning Crescent
Sep 16
New
Sep 22
First Quarter
Sep 30
Full
Oct 8
Last Quarter

Hourly Weather History & Observations

Time (CEST) Temp. Dew Point Humidity Pressure Visibility Wind Dir Wind Speed Gust Speed Precip Events Conditions
12:55 AM 62.6 °F 50.0 °F 63% 29.65 in 6.2 mi NW 21.9 mph - N/A Thunderstorm Thunderstorm
1:55 AM 62.6 °F 51.8 °F 68% 29.65 in 6.2 mi NW 21.9 mph - N/A Thunderstorm Thunderstorm
2:00 AM 63 °F 51 °F 57% 29.65 in 12 mi NW 21.9 mph - -   Scattered Clouds
2:55 AM 62.6 °F 51.8 °F 68% 29.62 in 6.2 mi NW 19.6 mph 40.3 mph N/A   Partly Cloudy
3:03 AM 62.6 °F 51.8 °F 68% 29.62 in 6.2 mi NW 18.4 mph 40.3 mph N/A   Partly Cloudy
3:55 AM 62.6 °F 51.8 °F 68% 29.62 in 6.2 mi NW 19.6 mph - N/A   Partly Cloudy
4:55 AM 64.4 °F 51.8 °F 64% 29.62 in 6.2 mi NNW 19.6 mph - N/A   Partly Cloudy
5:55 AM 64.4 °F 51.8 °F 64% 29.62 in 6.2 mi NNW 20.7 mph - N/A   Partly Cloudy
6:55 AM 64.4 °F 51.8 °F 64% 29.62 in 6.2 mi North 25.3 mph 42.6 mph N/A   Mostly Cloudy
7:55 AM 64.4 °F 53.6 °F 68% 29.62 in 6.2 mi NNW 20.7 mph 39.1 mph N/A   Partly Cloudy
8:00 AM 65 °F 53 °F 57% 29.62 in 12 mi NNW 20.7 mph - -   Scattered Clouds
8:55 AM 68.0 °F 53.6 °F 60% 29.62 in 6.2 mi North 23.0 mph 42.6 mph N/A   Partly Cloudy
9:55 AM 66.2 °F 53.6 °F 64% 29.62 in 6.2 mi North 24.2 mph 36.8 mph N/A   Scattered Clouds
10:55 AM 69.8 °F 55.4 °F 60% 29.68 in 6.2 mi North 21.9 mph 34.5 mph N/A   Mostly Cloudy
11:55 AM 69.8 °F 53.6 °F 56% 29.68 in 6.2 mi NNE 21.9 mph - N/A   Scattered Clouds
12:55 PM 69.8 °F 57.2 °F 64% 29.68 in 6.2 mi NNE 19.6 mph 32.2 mph N/A   Mostly Cloudy
1:55 PM 71.6 °F 53.6 °F 53% 29.65 in 6.2 mi NNW 10.4 mph - N/A   Scattered Clouds
2:00 PM 72 °F 54 °F 42% 29.66 in 12 mi NNW 10.4 mph - -   Partly Cloudy
2:55 PM 75.2 °F 59.0 °F 57% 29.65 in 6.2 mi NNW 12.7 mph - N/A   Scattered Clouds
3:55 PM 69.8 °F 59.0 °F 68% 29.62 in 6.2 mi NE 23.0 mph - N/A   Mostly Cloudy
4:55 PM 69.8 °F 57.2 °F 64% 29.62 in 6.2 mi NE 23.0 mph - N/A   Mostly Cloudy
5:55 PM 71.6 °F 59.0 °F 64% 29.65 in 6.2 mi NE 20.7 mph - N/A   Mostly Cloudy
6:55 PM 66.2 °F 64.4 °F 94% 29.65 in 6.2 mi NE 20.7 mph - N/A   Mostly Cloudy
7:55 PM 68.0 °F 57.2 °F 68% 29.62 in 6.2 mi NW 13.8 mph - N/A   Mostly Cloudy
8:00 PM 67 °F 58 °F 65% 29.63 in 12 mi NW 13.8 mph - -   Partly Cloudy
8:55 PM 68.0 °F 55.4 °F 64% 29.71 in 6.2 mi NNW 10.4 mph - N/A   Scattered Clouds
9:55 PM 68.0 °F 53.6 °F 60% 29.71 in 6.2 mi NW 11.5 mph - N/A   Mostly Cloudy
10:55 PM 68.0 °F 55.4 °F 64% 29.74 in 6.2 mi NW 8.1 mph - N/A   Scattered Clouds
11:55 PM 68.0 °F 55.4 °F 64% 29.74 in 6.2 mi NW 12.7 mph - N/A   Mostly Cloudy